Dewpoint
26 17 16 17 18 18 19 21 20 20 21 22 21 18 17 17 17 20 22 23 21 18 17 17 17 17 16 16 16 14 14 12 9 10 10 11 12 14 14 15 15 15 19 27 28 26 25 25 24 24 23 22 20 20 20 19 20 20 19 21 20 20 19 20 18 18 20 18 18 18 17 16 15 16 19 18 16 15 14 16 16 17 17 16 16 19
25 19 22 22 21 19 21 25 23 20 20 14 14 15 15 19 14 18 19 23 23 17 18 19 16 16 15 14 15 16 15 11 9 10 11 13 16 17 19 21 21 21 23 24 23 25 26 25 25 24 22 23 18 20 19 20 21 22 23 22 21 22 21 21 20 21 20 19 18 17 17 16 16 15 15 14 14 15 16 17 17 17 16 16 16 18
21 19 22 24 25 26 25 24 22 16 16 20 14 16 13 16 19 20 20 24 23 19 16 17 14 14 15 16 16 15 15 14 10 10 13 17 19 19 19 19 19 19 19 19 20 22 23 26 26 23 21 21 21 21 21 22 23 24 24 24 23 23 23 23 23 26 21 20 19 18 17 16 16 17 16 15 17 17 17 15 15 16 16 16 15 15
13 20 22 24 25 19 19 22 19 19 20 12 12 11 13 19 13 15 21 22 21 17 17 17 16 15 17 16 13 16 17 17 17 18 19 19 17 17 18 19 19 19 20 19 19 19 20 22 23 23 22 22 23 23 23 23 24 25 26 24 24 24 24 24 23 29 26 24 22 23 20 19 16 15 22 22 20 17 15 13 14 15 15 15 15 15
14 21 22 24 24 20 19 23 18 17 15 21 17 15 14 16 16 16 16 21 22 20 20 16 14 11 14 10 12 14 16 15 16 17 18 20 21 21 21 21 21 20 20 20 20 20 21 21 22 23 24 23 24 24 24 24 24 24 24 25 25 25 24 24 26 23 22 23 21 21 19 21 21 18 17 15 15 15 17 19 17 15 15 15 15 15
21 24 24 22 21 21 20 19 21 19 15 17 20 18 16 18 17 17 19 16 12 10 18 15 9 8 12 11 11 13 14 15 17 18 18 19 19 20 19 20 22 23 23 22 22 22 22 22 22 23 23 23 23 23 25 25 25 25 25 25 25 25 25 25 24 24 23 22 21 19 18 18 18 18 17 16 16 16 15 14 14 14 14 14 15 15
20 23 23 21 20 21 20 19 21 19 15 13 18 21 20 17 17 17 17 14 9 5 12 17 7 8 12 11 12 12 15 16 17 18 18 18 19 20 20 20 21 21 22 23 23 22 22 22 23 23 23 24 24 24 25 25 26 25 26 25 25 25 25 24 24 24 25 22 20 19 18 18 17 17 17 16 15 15 15 16 14 14 14 14 12 12
21 20 21 22 21 20 20 16 21 19 16 17 20 19 17 16 15 16 17 13 11 18 19 18 12 6 6 10 13 12 14 15 16 17 18 18 19 20 20 21 22 22 22 23 23 23 23 23 23 23 24 24 25 25 26 26 25 25 25 25 25 24 24 23 24 24 25 24 23 22 21 21 20 19 18 18 17 16 17 15 14 14 13 13 11 11
20 20 19 18 21 21 17 19 20 22 15 19 20 20 17 17 17 19 14 14 17 11 11 11 17 9 6 11 11 11 13 15 16 17 18 19 20 21 21 22 22 23 23 23 23 23 23 23 24 24 24 24 25 25 25 25 25 25 24 24 25 22 22 22 23 25 23 24 23 22 21 21 21 20 21 20 21 20 19 18 17 16 15 15 14 12
25 22 22 21 19 16 22 22 21 22 18 19 22 22 21 21 20 18 14 14 11 5 5 11 13 4 5 9 12 13 13 14 16 17 19 20 20 21 21 22 22 22 23 24 24 24 24 24 24 24 23 23 24 24 26 25 25 24 24 23 21 18 20 22 22 22 21 21 22 21 21 21 21 21 20 20 18 18 17 16 16 15 14 13 12 11
23 30 29 24 21 20 20 18 22 21 20 22 21 17 19 17 18 16 14 10 7 2 9 12 16 6 4 10 12 13 13 15 17 18 19 20 21 21 22 22 22 23 23 23 23 23 24 24 24 23 22 23 23 24 24 24 23 23 21 18 16 17 19 19 18 18 18 19 19 19 19 20 20 20 20 19 19 18 18 16 15 14 14 14 12 12
24 25 20 20 27 25 18 18 23 23 22 17 15 13 11 13 15 11 9 9 1 0 7 10 14 6 0 6 12 14 15 16 18 17 19 19 20 21 21 22 22 23 23 24 24 23 24 23 24 23 22 22 22 22 22 21 21 20 17 16 15 16 17 16 16 16 16 16 15 15 16 17 18 19 19 18 18 19 18 18 17 16 15 13 12 11
18 23 23 24 29 21 20 17 19 23 22 19 18 16 6 5 3 -3 4 -1 -1 3 6 5 8 5 7 10 13 15 16 16 17 19 19 20 20 21 21 22 23 23 23 24 24 24 24 24 24 22 21 22 21 21 20 19 18 17 15 15 14 14 14 14 14 14 13 12 12 13 15 16 18 17 16 17 18 19 19 18 17 17 16 16 14 13
10 21 23 23 22 25 21 11 11 11 16 16 12 10 5 -1 -5 -5 -2 -1 0 8 11 8 8 6 10 11 14 15 17 18 18 19 20 20 20 20 21 22 23 23 23 24 25 25 25 25 24 22 20 21 20 19 19 17 16 15 14 14 14 13 13 12 11 11 11 11 12 13 12 11 11 13 15 17 18 19 19 19 19 18 17 16 15 14
2 8 12 21 17 22 20 13 13 13 16 15 18 9 6 4 -2 -3 -4 -3 -1 6 7 12 3 1 8 10 16 17 18 19 20 20 21 21 21 21 22 22 22 23 23 25 26 26 26 24 23 21 20 20 19 19 18 15 14 13 13 13 12 10 10 9 9 10 11 12 10 9 9 10 12 14 14 14 16 16 16 17 18 18 18 17 15 14
9 7 12 22 20 20 18 21 19 16 11 14 15 13 8 6 12 2 2 -1 -1 2 3 3 2 8 11 16 18 15 17 18 19 19 20 20 21 22 22 23 23 24 25 26 26 25 23 23 22 21 19 19 19 17 15 12 12 11 12 11 9 8 8 8 10 10 10 9 8 9 10 11 10 10 9 10 11 11 11 13 14 16 16 16 16 16
13 5 16 21 19 15 19 19 21 15 4 9 8 4 6 15 9 2 9 11 7 2 1 2 9 11 13 13 14 16 16 17 18 19 19 20 21 22 23 24 24 25 25 26 25 24 22 21 21 20 18 18 17 15 13 10 9 10 10 9 8 8 7 7 8 6 7 7 8 10 10 7 5 5 7 9 10 10 11 11 11 12 14 16 16 16
5 9 16 18 17 20 18 20 20 20 16 12 6 8 17 16 14 9 1 -2 -5 -1 2 7 7 8 10 6 14 15 16 16 17 18 19 21 22 22 23 23 22 22 21 24 24 24 21 19 18 18 18 16 14 12 10 7 8 9 8 8 7 7 5 5 4 5 6 7 9 8 5 3 3 4 6 8 9 9 10 11 12 14 15 16 16 16
12 8 10 16 18 21 20 19 16 20 20 13 9 16 10 2 5 9 2 -2 -2 -3 -2 3 7 6 6 8 14 14 15 16 17 19 20 21 21 21 20 19 19 19 21 25 23 21 19 16 16 17 16 13 12 10 7 6 7 7 8 8 6 4 3 3 5 6 8 9 6 4 2 1 2 4 6 7 9 9 10 12 15 16 16 15 14 15
16 5 10 14 14 16 12 14 11 13 16 19 17 11 14 8 3 1 4 1 6 -2 -2 2 -1 5 10 12 13 14 16 18 19 19 20 20 21 20 18 17 18 19 21 23 21 18 16 16 16 16 13 11 9 7 6 6 7 6 7 5 3 2 2 4 6 7 7 3 0 -0 0 1 3 5 6 7 9 10 12 7 5 7 7 8 9 9
14 10 4 10 16 15 10 12 10 11 7 8 9 6 8 5 12 10 5 6 6 -4 -5 -3 -1 3 13 13 17 16 17 20 20 18 19 19 19 17 16 16 17 19 21 21 18 16 16 16 16 13 11 9 7 6 5 6 6 7 6 3 1 1 3 5 6 4 -0 -1 -1 0 1 2 4 5 7 4 2 3 4 4 4 2 1 4 4 3
9 12 9 12 10 9 9 12 12 13 12 12 14 8 13 5 4 2 7 2 3 2 1 -1 4 2 15 17 18 18 20 20 20 18 16 16 15 15 15 16 17 21 21 19 16 16 16 16 13 11 10 7 4 4 2 3 5 5 3 1 1 3 4 6 1 -2 -3 -2 -1 0 2 3 5 1 -2 -2 -5 -5 -6 -4 -4 -4 -2 -2 -1 -1
12 14 12 10 10 10 10 11 15 15 15 16 11 9 15 9 8 4 1 2 2 2 1 4 3 5 15 19 20 21 21 20 18 16 14 14 14 15 15 17 19 21 20 18 16 16 15 13 11 9 7 4 2 2 0 1 4 4 2 1 2 3 4 -0 -3 -4 -3 -2 -1 1 3 -2 -5 -4 -4 -5 -5 -5 -4 -5 -5 -3 -2 -2 -2 -2
23 9 4 8 11 11 11 14 15 14 16 12 12 12 10 6 6 8 4 2 5 2 4 5 5 9 18 22 22 22 21 19 13 13 14 14 14 15 17 19 20 20 20 18 16 15 13 11 9 7 3 1 0 -0 -1 1 4 2 1 1 2 3 -1 -4 -4 -4 -3 -2 -0 1 -4 -5 -6 -4 -4 -5 -5 -5 -6 -7 -6 -4 -3 -3 -3 -3
8 12 7 3 4 7 7 8 11 14 13 11 11 13 14 9 8 5 4 2 5 4 9 8 6 8 20 24 21 22 16 13 13 14 15 13 13 17 19 18 19 19 17 17 15 13 11 8 6 3 1 0 0 -0 -0 3 3 1 1 1 0 -1 -3 -4 -4 -4 -3 -1 -1 -4 -6 -8 -7 -6 -6 -6 -5 -6 -7 -8 -7 -6 -5 -4 -3 -2
8 11 8 2 0 2 1 -0 4 7 7 14 13 11 11 9 5 6 5 5 5 8 12 9 8 19 22 20 15 12 12 12 13 14 15 13 13 18 18 15 17 16 15 15 13 10 8 6 4 2 0 0 0 -0 1 3 2 1 -0 -1 -3 -5 -5 -5 -4 -4 -3 -1 -5 -7 -9 -8 -7 -7 -6 -6 -7 -7 -7 -7 -7 -6 -5 -4 -5 -5
9 12 14 9 7 7 10 10 11 18 14 11 13 11 10 11 11 11 10 7 8 9 12 15 15 17 18 12 11 11 12 14 14 13 14 12 12 19 16 14 15 12 13 12 11 8 6 4 2 0 0 0 0 -0 2 2 1 -0 -3 -5 -5 -5 -5 -6 -6 -5 -1 -5 -7 -9 -9 -9 -7 -7 -7 -8 -8 -8 -8 -8 -8 -7 -7 -6 -6 -7
7 7 12 13 13 13 13 13 15 17 14 13 10 9 11 12 11 11 11 11 16 12 10 15 14 9 12 10 10 10 13 14 14 13 14 12 13 18 14 13 14 10 12 11 8 6 5 3 1 -0 0 -0 -0 0 1 0 0 -3 -5 -6 -6 -6 -7 -7 -6 -4 -4 -7 -9 -10 -10 -8 -8 -8 -8 -8 -8 -9 -9 -9 -9 -8 -8 -7 -7 -7
8 7 7 11 9 12 14 14 14 14 14 13 13 11 10 11 12 11 12 15 15 9 10 11 12 9 12 10 10 11 14 14 14 13 14 12 15 15 13 10 10 10 10 8 7 6 4 1 -1 -1 -1 -0 0 -0 -1 -0 -1 -4 -5 -7 -7 -8 -8 -7 -6 -4 -6 -8 -9 -10 -10 -9 -9 -9 -9 -9 -9 -10 -10 -9 -9 -8 -8 -8 -6 -6
8 6 5 9 13 13 12 13 15 15 14 13 13 15 14 12 14 14 15 14 13 10 12 13 13 13 10 10 10 12 16 15 14 14 13 11 15 12 11 10 10 10 8 7 5 4 1 -1 -2 -2 -1 -1 -0 -1 -0 -0 -2 -4 -5 -7 -8 -8 -8 -7 -6 -5 -6 -9 -10 -10 -10 -9 -9 -9 -10 -10 -11 -10 -10 -10 -9 -8 -7 -8 -7 -5
14 9 15 8 6 11 12 13 12 14 12 13 16 16 15 14 14 13 9 11 9 8 8 11 8 7 12 11 11 14 16 14 14 13 12 11 12 11 10 10 11 8 6 4 3 1 -1 -2 -2 -2 -1 -1 -1 -1 -0 -1 -3 -4 -5 -7 -8 -9 -8 -7 -6 -5 -7 -9 -10 -10 -10 -10 -10 -10 -11 -11 -11 -9 -9 -9 -8 -7 -7 -7 -6 -6
7 9 6 4 6 8 10 14 13 15 14 13 14 16 15 13 9 12 8 11 10 7 8 5 5 4 13 12 14 14 14 13 13 13 12 12 11 10 10 11 8 4 2 1 1 -0 -2 -3 -3 -2 -2 -2 -2 -1 -1 -3 -4 -4 -6 -8 -9 -9 -8 -7 -6 -7 -8 -9 -10 -10 -10 -9 -10 -10 -10 -10 -10 -9 -9 -9 -9 -8 -8 -8 -7 -6
7 7 8 5 6 1 8 11 12 13 11 6 6 15 16 14 14 13 14 13 13 14 6 3 6 12 13 14 14 14 14 13 13 12 11 10 10 10 10 8 4 1 -0 -1 0 -2 -3 -3 -3 -3 -3 -2 -2 -1 -3 -4 -4 -5 -7 -8 -9 -9 -9 -8 -7 -8 -9 -10 -10 -11 -10 -10 -10 -11 -10 -10 -10 -9 -9 -9 -10 -9 -9 -9 -8 -6
8 8 7 8 6 -1 8 10 11 7 1 1 14 16 17 15 14 12 13 13 12 11 10 12 13 13 13 14 14 14 13 13 13 13 13 10 10 10 8 5 1 -0 -1 -0 -1 -2 -3 -3 -3 -3 -3 -3 -2 -3 -4 -4 -4 -6 -7 -9 -9 -9 -9 -8 -7 -9 -9 -10 -10 -10 -11 -10 -11 -11 -10 -10 -10 -10 -10 -10 -10 -10 -9 -8 -7 -6
9 10 8 7 8 6 6 9 4 2 1 14 16 15 16 17 14 13 14 13 13 14 13 14 13 13 14 14 14 13 13 12 12 12 11 10 9 7 5 2 -1 -2 -3 -1 -2 -3 -3 -3 -3 -4 -4 -3 -2 -4 -5 -5 -6 -7 -8 -9 -9 -9 -9 -8 -9 -9 -10 -10 -10 -11 -11 -11 -10 -11 -11 -11 -11 -11 -11 -11 -11 -10 -9 -9 -7 -7
8 9 5 9 3 4 4 2 0 -2 11 18 18 16 16 16 14 13 13 14 16 16 15 12 13 14 14 14 13 13 11 11 11 11 10 8 6 4 3 -0 -2 -4 -5 -1 -2 -3 -3 -3 -4 -5 -4 -2 -3 -5 -6 -7 -7 -8 -9 -9 -9 -9 -8 -8 -9 -10 -10 -11 -11 -11 -11 -11 -11 -11 -12 -12 -12 -12 -12 -11 -11 -11 -9 -8 -7 -6
12 6 5 8 7 7 6 3 8 11 14 10 13 14 15 13 14 13 9 11 15 14 14 13 13 14 13 13 12 11 10 9 7 7 9 7 4 2 0 -2 -4 -6 -5 -2 -2 -2 -2 -3 -4 -5 -4 -4 -4 -6 -7 -8 -9 -9 -9 -9 -9 -9 -9 -9 -10 -11 -11 -11 -11 -11 -11 -11 -11 -12 -12 -12 -13 -13 -12 -12 -11 -10 -9 -8 -7 -7
14 10 9 7 9 8 3 -0 -2 -8 -1 4 15 15 16 16 15 14 12 10 15 15 15 14 13 13 12 12 11 10 8 6 4 6 7 6 3 1 -1 -3 -6 -6 -5 -1 -2 -2 -2 -4 -5 -5 -4 -5 -6 -7 -8 -9 -9 -10 -10 -10 -10 -10 -10 -11 -11 -11 -11 -11 -11 -11 -11 -11 -12 -13 -13 -13 -14 -13 -12 -11 -11 -10 -8 -8 -8 -7
13 13 9 9 8 4 1 -1 -3 -7 -5 11 14 15 16 16 15 15 7 7 16 15 14 14 12 13 12 11 10 9 7 3 4 6 6 4 2 -0 -2 -5 -6 -6 -5 -2 -2 -2 -4 -5 -5 -4 -4 -6 -7 -7 -8 -9 -9 -10 -10 -10 -10 -10 -11 -11 -11 -11 -12 -11 -11 -11 -11 -12 -13 -13 -13 -14 -13 -13 -13 -12 -10 -9 -7 -7 -7 -6
9 6 5 5 3 4 -0 1 -7 -5 -0 11 15 15 16 16 15 5 -3 2 14 15 14 14 13 13 12 11 10 9 7 3 4 6 5 2 1 -1 -4 -5 -6 -6 -5 -3 -3 -2 -4 -5 -5 -6 -6 -7 -7 -8 -9 -9 -10 -10 -10 -10 -10 -11 -11 -11 -11 -11 -11 -11 -11 -11 -12 -13 -13 -13 -14 -14 -14 -13 -12 -10 -9 -8 -8 -7 -6 -5
7 8 7 2 4 2 4 -6 -5 -3 14 15 16 16 16 16 8 -3 -2 5 15 15 14 14 13 13 11 10 9 8 8 7 7 6 4 -0 -0 -2 -3 -5 -5 -5 -5 -4 -3 -0 -5 -6 -6 -6 -7 -7 -8 -9 -9 -10 -11 -11 -11 -11 -11 -12 -11 -11 -11 -11 -12 -12 -12 -13 -13 -13 -14 -14 -14 -14 -13 -12 -11 -10 -9 -8 -8 -7 -6 -6
2 6 5 -2 1 -0 -2 0 0 -0 10 17 16 17 16 7 -1 3 15 15 16 15 14 13 12 12 11 10 8 8 7 6 6 6 0 -2 -1 -2 -3 -4 -5 -6 -5 -3 -1 -3 -6 -7 -7 -8 -8 -8 -9 -9 -10 -10 -11 -11 -12 -12 -12 -12 -11 -11 -11 -12 -12 -13 -13 -14 -14 -14 -14 -14 -14 -13 -12 -11 -11 -9 -8 -8 -7 -7 -7 -7
6 5 3 3 -1 -0 -3 -4 -3 -8 4 17 17 12 13 7 11 15 15 15 16 14 13 12 12 13 11 9 8 7 5 4 5 1 -2 -2 -2 -3 -3 -4 -6 -6 -6 -5 -4 -5 -6 -8 -8 -8 -9 -9 -9 -10 -10 -11 -12 -12 -12 -13 -12 -11 -11 -11 -12 -13 -13 -14 -14 -15 -15 -15 -15 -15 -14 -14 -12 -11 -10 -10 -9 -9 -7 -8 -8 -8
10 3 -1 -4 0 -1 -9 -5 -2 8 16 17 16 10 14 14 16 16 16 14 14 14 12 11 11 12 9 7 6 4 4 4 1 -1 -3 -3 -2 -2 -3 -4 -6 -6 -6 -5 -5 -6 -6 -8 -8 -9 -9 -9 -10 -10 -11 -11 -12 -12 -12 -13 -11 -11 -11 -12 -13 -13 -14 -15 -15 -16 -16 -16 -16 -15 -15 -13 -11 -11 -11 -11 -10 -9 -8 -8 -8 -8
12 5 2 5 4 5 4 6 12 18 17 17 16 14 16 17 18 17 17 14 13 13 13 12 11 9 8 6 4 3 4 -0 -2 -2 -4 -4 -3 -3 -4 -5 -6 -6 -6 -5 -6 -6 -7 -8 -9 -9 -10 -10 -11 -11 -11 -11 -12 -13 -13 -12 -11 -12 -12 -13 -14 -15 -15 -16 -16 -17 -17 -16 -16 -15 -14 -13 -11 -11 -11 -11 -10 -10 -9 -9 -8 -7
13 14 14 11 7 10 10 13 20 19 17 16 17 17 16 18 18 17 14 12 11 11 11 12 9 7 6 4 2 3 1 -1 -3 -4 -4 -3 -3 -3 -4 -5 -6 -6 -6 -6 -7 -7 -8 -8 -9 -10 -11 -11 -11 -11 -11 -11 -12 -13 -13 -12 -12 -12 -13 -14 -15 -16 -16 -17 -17 -17 -17 -17 -17 -16 -14 -13 -12 -11 -11 -10 -10 -10 -9 -8 -7 -5
14 13 12 10 13 8 -2 13 16 16 16 16 14 17 17 16 15 14 12 10 10 9 10 9 7 6 4 2 2 -0 -1 -2 -4 -5 -4 -3 -3 -4 -5 -6 -6 -6 -6 -7 -7 -7 -8 -9 -10 -11 -11 -12 -12 -12 -12 -13 -12 -12 -12 -12 -12 -12 -13 -15 -15 -16 -17 -18 -18 -18 -17 -18 -16 -15 -13 -13 -12 -11 -11 -10 -10 -9 -8 -7 -5 -4
6 13 11 12 13 10 4 9 16 16 15 16 14 12 12 13 12 12 12 10 9 10 9 7 5 4 2 1 0 -1 -2 -3 -5 -5 -4 -3 -4 -5 -6 -6 -6 -6 -6 -7 -8 -8 -9 -10 -11 -11 -11 -12 -12 -12 -12 -13 -13 -12 -13 -13 -12 -13 -14 -15 -16 -17 -18 -18 -18 -18 -18 -17 -14 -14 -14 -14 -13 -12 -12 -11 -10 -9 -7 -5 -3 -2
14 13 7 13 13 13 13 15 16 15 14 15 14 13 13 13 11 10 10 9 9 7 6 4 4 3 1 0 -2 -3 -5 -5 -5 -4 -4 -4 -5 -5 -6 -6 -6 -7 -7 -8 -8 -8 -10 -10 -11 -11 -12 -13 -12 -13 -13 -14 -13 -13 -13 -12 -13 -14 -15 -16 -16 -17 -19 -18 -18 -19 -17 -16 -15 -15 -15 -14 -13 -12 -11 -11 -10 -7 -5 -2 -1 -1
14 13 14 13 9 6 8 14 14 11 10 13 13 12 12 11 9 9 9 8 7 6 4 3 3 3 0 -0 -4 -5 -6 -6 -5 -4 -4 -5 -6 -6 -7 -6 -7 -7 -8 -8 -8 -9 -10 -11 -11 -12 -13 -13 -13 -13 -14 -14 -14 -13 -13 -13 -14 -14 -16 -16 -17 -18 -19 -19 -19 -18 -17 -16 -16 -16 -14 -14 -13 -13 -12 -9 -3 -2 -5 -3 0 3
15 15 16 13 10 11 15 16 14 14 13 13 13 12 11 9 8 8 7 6 6 5 3 3 2 -0 -2 -1 -4 -5 -6 -6 -6 -4 -5 -5 -6 -6 -6 -7 -7 -7 -8 -8 -9 -10 -11 -11 -12 -13 -14 -13 -13 -14 -14 -14 -14 -14 -14 -13 -14 -15 -16 -17 -18 -18 -19 -19 -19 -18 -16 -16 -16 -16 -14 -14 -14 -13 -12 -13 -12 3 6 3 1 4